Flag for Australia Weather past 2 weeks in Tamworth, New South Wales, Australia

Now
79 °F

Sunny.


Feels Like: 81 °F
Forecast: 65 / 88 °F
Wind: 6 mph from Northwest

Location: Tamworth Airport

Current Time: Mar 1, 2015 at 8:10:15 PM

Latest Report: Mar 1, 2015 at 7:30 PM


Visibility: N/A

Pressure: 29.80 "Hg

Humidity: 70%

Dew point: 68 °F

Location of TamworthLocation

Historic Weather in Tamworth — Graph

°F

Tamworth temperature yesterday

Maximum temperature yesterday: 93 °F (at 3:30 PM)
Minimum temperature yesterday: 64 °F (at 4:30 AM)
Average temperature yesterday: 77 °F

Past Weeks' High & Low Weather Summary

 TemperatureHumidityPressure
High97 °F (Feb 23, 3:00 PM)94% (Feb 26, 9:00 PM)30.12 "Hg (Feb 26, 9:00 PM)
Low61 °F (Feb 15, 5:00 AM)17% (Feb 18, 2:00 PM)29.71 "Hg (Feb 26, 6:00 PM)
Average76 °F53%29.94 "Hg
* Reported Feb 14 7:00 PM — Mar 1 7:00 PM, Tamworth, Weather by CustomWeather, © 2015

Note: Actual official high and low records may vary slightly from our data, if they occured in-between our weather recording intervals... More about our weather records

Advertising

Tamworth weather history for previous 24 hours

 ConditionsComfort  
Time TempWeatherWind HumidityBarometerVisibility
7:00 PM
Sun, Mar 1
81 °FSunny.5 mph66%29.77 "HgN/A
6:00 PM86 °FBroken clouds.10 mph49%29.74 "HgN/A
5:30 PM86 °FSunny.6 mph49%29.74 "HgN/A
5:00 PM86 °FSunny.7 mph43%29.77 "HgN/A
4:00 PM90 °FPartly sunny.13 mph41%29.74 "HgN/A
3:30 PM88 °FScattered clouds.8 mph38%29.77 "HgN/A
3:00 PM90 °FSunny.8 mph36%29.77 "HgN/A
2:30 PM90 °FSunny.7 mph36%29.80 "HgN/A
2:00 PM88 °FScattered clouds.3 mph40%29.80 "HgN/A
1:00 PM84 °FScattered clouds.6 mph48%29.83 "HgN/A
12:30 PM82 °FPartly sunny.6 mph55%29.86 "HgN/A
12:00 PM79 °FScattered clouds.3 mph65%29.86 "HgN/A
11:00 AM75 °FPartly sunny.6 mph69%29.89 "HgN/A
10:30 AM72 °FBroken clouds.8 mph83%29.89 "Hg2 mi
10:00 AM73 °FBroken clouds.17 mph69%29.89 "Hg2 mi
9:30 AM81 °FBroken clouds.7 mph48%29.86 "HgN/A
9:00 AM79 °FPartly sunny.3 mph54%29.86 "HgN/A
8:00 AM73 °FSunny.6 mph69%29.86 "HgN/A
7:30 AM70 °FSunny.5 mph78%29.86 "HgN/A
7:00 AM68 °FScattered clouds.6 mph83%29.83 "HgN/A
6:00 AM66 °FPassing clouds.2 mph88%29.80 "HgN/A
5:30 AM66 °FClear.2 mph83%29.80 "HgN/A
5:00 AM68 °FPassing clouds.1 mph78%29.80 "HgN/A
4:30 AM68 °FClear.6 mph83%29.80 "HgN/A
4:00 AM66 °FPassing clouds.6 mph88%29.80 "HgN/A
3:30 AM66 °FPassing clouds.1 mph83%29.80 "HgN/A
3:00 AM68 °FPassing clouds.6 mph78%29.80 "HgN/A
2:00 AM72 °FPassing clouds.5 mph73%29.80 "HgN/A
1:30 AM70 °FClear.No wind73%29.83 "HgN/A
1:00 AM73 °FClear.5 mph69%29.83 "HgN/A
12:00 AM75 °FClear.8 mph61%29.83 "HgN/A
11:00 PM
Sat, Feb 28
73 °FClear.6 mph61%29.83 "HgN/A
10:30 PM73 °FClear.No wind61%29.83 "HgN/A
10:00 PM77 °FClear.6 mph51%29.83 "HgN/A
9:00 PM79 °FClear.No wind48%29.80 "HgN/A
8:30 PM82 °FClear.No wind40%29.77 "HgN/A
8:00 PM82 °FPassing clouds.No wind40%29.77 "HgN/A
Weather by CustomWeather, © 2015

See weather overviewHow to use our weather pages